Location: Pine Creek
(45.5072°N, 110.5649°W)
Time: 16:43:58
(UTC+00:00)

Envisat - Pass Details

Date: 21 January 2022
Orbit: 764 x 765 km, 98.2° (Epoch: 19 May)

Event Time Altitude Azimuth Distance (km) Brightness Sun altitude
Rises 12:23:30 0° 13° (NNE) 3,241 6.4 -26.1°
Reaches altitude 10° 12:25:49 10° 13° (NNE) 2,310 5.6 -25.7°
Maximum altitude 12:30:55 90° 303° (WNW) 771 2.9 -24.8°
Drops below altitude 10° 12:35:59 10° 195° (SSW) 2,295 5.3 -24.0°
Sets 12:38:17 0° 196° (SSW) 3,217 6.1 -23.6°
